www.pogodaiklimat.ru
ПОГОДА в Кучарловице
Время
(UTC), дата
10 22.02
11 22.02
12 22.02
13 22.02
14 22.02
15 22.02
16 22.02
17 22.02
18 22.02
19 22.02
20 22.02
21 22.02
22 22.02
23 22.02
00 23.02
01 23.02
02 23.02
03 23.02
04 23.02
05 23.02
06 23.02
07 23.02
08 23.02
09 23.02
10 23.02
11 23.02
12 23.02
13 23.02
14 23.02
15 23.02
16 23.02
17 23.02
18 23.02
19 23.02
20 23.02
21 23.02
22 23.02
23 23.02
00 24.02
01 24.02
02 24.02
03 24.02
04 24.02
05 24.02
06 24.02
07 24.02
08 24.02
09 24.02
10 24.02
11 24.02
12 24.02
13 24.02
14 24.02
15 24.02
16 24.02
17 24.02
18 24.02
19 24.02
20 24.02
21 24.02
22 24.02
23 24.02
00 25.02
01 25.02
02 25.02
03 25.02
04 25.02
05 25.02
06 25.02
07 25.02
08 25.02
09 25.02
10 25.02
11 25.02
12 25.02
13 25.02
14 25.02
15 25.02
16 25.02
17 25.02
18 25.02
19 25.02
20 25.02
21 25.02
22 25.02
23 25.02
00 26.02
01 26.02
02 26.02
03 26.02
04 26.02
05 26.02
06 26.02
07 26.02
08 26.02
09 26.02
10 26.02
11 26.02
12 26.02
13 26.02
14 26.02
15 26.02
16 26.02
17 26.02
18 26.02
19 26.02
20 26.02
21 26.02
22 26.02
23 26.02
00 27.02
01 27.02
02 27.02
03 27.02
04 27.02
05 27.02
06 27.02
07 27.02
08 27.02
09 27.02
10 27.02
11 27.02
12 27.02
13 27.02
14 27.02
15 27.02
16 27.02
17 27.02
18 27.02
19 27.02
20 27.02
21 27.02
22 27.02
23 27.02
00 28.02
01 28.02
02 28.02
03 28.02
04 28.02
05 28.02
06 28.02
07 28.02
08 28.02
09 28.02
10 28.02
11 28.02
12 28.02
13 28.02
14 28.02
15 28.02
16 28.02
17 28.02
18 28.02
19 28.02
20 28.02
21 28.02
22 28.02
23 28.02
00 29.02
01 29.02
02 29.02
03 29.02
04 29.02
05 29.02
06 29.02
07 29.02
08 29.02
09 29.02
10 29.02
Ветер
(напр.,м/с)
Видим. Явления Облачность Т
(С)
Тd
(С)
f
(%)
Тe
(С)
Тes
(С)
Комфортность P
(гПа)
Po
(гПа)
Тmin
(С)
Tmax
(С)
R
(мм)
R24
(мм)
S
(см)
Ю 5 >70 км 9/0
[Ac lent Cs]
+8.0 -1.5 51 +5 +7 1028.2 987.0
ЮЗ 6 >70 км 9/0
[Ac lent Cs]
+10.5 -2.9 39 +8 +10 1027.2 986.4
Ю 6 >70 км 6/0
[Ac lent Cs]
+11.8 -2.0 38 +9 +11 1026.1 985.5 0.3
Ю 6 >70 км 5/0
[Ac lent Ci sp]
+12.2 -1.3 39 +10 +11 1025.2 984.7
Ю 6 >70 км 6/0
[Cs]
+13.7 -3.6 30 +12 +13 1023.3 983.1
Ю 5 >70 км 9/0
[Cs]
+13.2 -2.3 34 +12 +12 1022.6 982.3 0.4
ЮЗ 5 35 км н/о +11.4 -2.7 37 +9 +9 1022.7 982.2
Ю 5 35 км н/о +9.7 -2.0 44 +7 +7 1023.1 982.3
Ю 3 >70 км 9/0
[As op Cs]
+8.5 -2.7 45 +7 +7 1023.5 982.5 +14.4 0.4
Ю 4 >70 км 9/0
[Ac und]
+7.9 -2.4 48 +5 +5 1022.9 981.9
Ю 5 >70 км 10/0
[Ac As]
+8.1 -2.2 48 +5 +5 1022.0 981.0
ЮВ 2 35 км {дымка} н/о +7.6 -1.6 52 +6 +6 1021.8 980.8 0.4
Ю 2 35 км н/о +8.4 -2.0 48 +7 +7 1021.8 980.9
З 8
{12}
35 км н/о +11.9 -1.0 41 +9 +9 1021.3 980.9
З 7
{12}
35 км {ливн. осадки, дождь} н/о +11.2 -0.2 45 +8 +8 1021.7 981.2 0.0 0.4
З 4
{13}
35 км н/о +10.5 +1.1 52 +8 +8 1022.0 981.4
З 6 35 км слаб. дождь н/о +9.2 +3.6 68 +6 +6 1021.7 980.9
З 9
{13}
35 км в посл. час дождь н/о +8.2 +4.2 76 +3 +3 1021.8 980.9 0.4
З 9
{16}
35 км н/о +8.0 +3.9 75 +3 +3 1022.2 981.3
З 7
{16}
35 км н/о +7.7 +3.7 76 +3 +3 1022.4 981.4
З 10
{16}
>70 км 10/9 960 м
[Sc]
+8.0 +3.7 74 +3 +3 1021.5 980.6 +3.4 0.1 0.1
З 9
{14}
>70 км 10/9 1050 м
[Sc]
+8.5 +3.5 71 +4 +4 1021.6 980.7
З 9
{14}
>70 км 9/5 1110 м
[Sc Ac As]
+9.2 +3.8 69 +5 +5 1020.8 980.1
З 12-17
{17}
>70 км 9/3 930 м
[Cu Sc Ac As]
+10.4 +3.7 63 +6 +6 1019.9 979.4 0.5
З 12-17
{18}
>70 км 9/9 930 м
[Cu Sc]
+10.5 +3.5 62 +6 +6 1019.5 979.0
З 10
{17}
>70 км слаб. дождь 10/3 1000 м
[Sc As op]
+10.4 +3.9 64 +6 +6 1018.0 977.6
ЮЗ 9-14
{18}
50 км слаб. дождь 10/1 960 м
[Sc Ac As]
+10.4 +4.1 65 +7 +7 1015.6 975.3 0.1 0.5
ЮЗ 9
{14}
50 км слаб. дождь 10/1 900 м
[Sc As op]
+11.6 +5.3 65 +8 +8 1013.2 973.1 0.5
З 13-18
{19}
70 км в посл. час дождь 10/1 900 м
[Sc As op]
+12.7 +5.4 61 +9 +9 1011.0 971.2
З 14-20
{20}
>70 км осадки на расстоянии 10/1 1000 м
[Sc As op]
+13.4 +5.6 59 +10 +10 1009.8 970.1 0.5
З 12
{22}
35 км н/о +13.5 +5.4 58 +10 +10 1008.7 969.1
З 15-21
{22}
35 км н/о +14.1 +5.2 55 +11 +11 1008.4 968.9
З 16-21
{23}
>70 км 9/6 1500 м
[Sc Ac lent Ci fib]
+14.4 +5.5 55 +11 +11 1008.0 968.5 +14.6 0.1 0.5
З 12-20
{21}
35 км слаб. дождь 10/4 1500 м
[Sc As op]
+14.1 +6.7 61 +11 +11 1008.4 968.9
З 9
{20}
35 км слаб. дождь 10/9 1500 м
[Sc]
+12.7 +7.6 71 +10 +10 1008.6 968.9
З 13-18
{21}
35 км в посл. час дождь {ливн. осадки} н/о +13.0 +7.5 69 +9 +9 1008.6 968.9 0.5
З 12
{19}
35 км н/о +13.5 +6.8 64 +10 +10 1008.4 968.8
З 10-18
{22}
21 км слаб. ливневой дождь {морось} н/о +12.2 +7.7 74 +9 +9 1009.7 969.9
СЗ 13-19
{23}
35 км в посл. час дождь {ливн. осадки} н/о +7.3 +3.0 74 +1 +1 1013.0 972.3 2 0.5
СЗ 14-22
{22}
13 км слаб. ливневой дождь н/о +6.2 +2.5 77 -1 -1 1014.9 974.0
СЗ 12-18
{20}
35 км в посл. час дождь {ливн. осадки} н/о +5.7 +0.1 67 -1 -1 1016.4 975.3
СЗ 11-16
{22}
35 км {ливн. осадки} н/о +5.1 -1.8 61 -1 -1 1018.0 976.8 0.6
СЗ 9-14
{22}
35 км н/о +4.1 -2.6 62 -2 -2 1019.8 978.3
СЗ 10-15
{16}
35 км н/о +3.8 -2.8 62 -3 -3 1021.6 980.0
СЗ 7
{22}
50 км 1/1 700 м
[Sc Ac lent Ci fib]
+3.0 -2.5 67 -3 -3 1022.7 981.0 +2.6 2 2.5
СЗ 7
{12}
45 км 1/1 1000 м
[Sc Ac lent Ci sp]
+3.4 -2.1 67 -2 -2 1023.6 981.9
З 7 45 км 4/1 750 м
[Cu Sc Ac lent Ci fib]
+4.5 -1.5 65 -1 -0 1024.1 982.5
СЗ 6
{12}
50 км 5/1 840 м
[Cu hum Ac lent Ci sp]
+5.2 -1.3 63 +1 +2 1023.7 982.3 0.5
З 7
{11}
50 км 6/1 900 м
[Cu hum Ac lent Ci sp]
+5.7 -1.2 61 +1 +2 1023.4 982.0
СЗ 6
{12}
50 км 5/1 1020 м
[Cu med, cong Ac lent Ci sp]
+6.9 -1.0 57 +3 +5 1023.1 981.9
З 6
{12}
50 км 5/1 1110 м
[Cu med, cong Ac lent Ci sp]
+7.7 -1.5 52 +4 +6 1021.7 980.7 0.5
З 6 60 км 9/1 1200 м
[Cu med, cong Ac und]
+7.9 -1.9 50 +4 +5 1021.0 980.0
З 5 60 км 9/9 1380 м
[Cu hum Ac As]
+7.9 -3.0 46 +5 +5 1020.1 979.2
З 4 >70 км 9/9 1380 м
[Sc diur, vesp Ac As]
+7.9 -2.7 47 +5 +5 1019.5 978.6 0.5
ЮЗ 5 35 км н/о +7.4 -0.5 57 +4 +4 1018.4 977.5
ЮЗ 4 35 км н/о +6.9 -0.3 60 +4 +4 1017.5 976.6
Ю 4 >70 км 10/10 1200 м
[Sc]
+6.2 +1.1 70 +3 +3 1016.5 975.5 +8.5 0.6
Ю 5 50 км 10/9 1110 м
[Sc]
+5.7 +1.1 72 +1 +1 1015.3 974.3
Ю 5 40 км 8/6 870 м
[Sc Ac As Ci sp]
+5.4 +1.5 76 +1 +1 1014.3 973.3
Ю 4 35 км {дымка} н/о +4.6 +1.7 81 0 0 1013.1 972.0 0.6
Ю 4 35 км н/о +4.1 +1.9 86 -0 -0 1011.8 970.7
Ю 5 35 км н/о +4.0 +2.4 89 -1 -1 1010.9 969.8
нст 2 35 км {дымка} н/о +3.6 +1.6 87 +1 +1 1010.4 969.3 0.5
Ю 3 35 км н/о +3.7 +1.7 87 -0 -0 1009.7 968.6
ЮЗ 6 35 км н/о +6.4 +3.4 81 +2 +2 1008.5 967.9
Ю 4 35 км {дымка} н/о +4.3 +2.4 87 -0 -0 1008.4 967.5 0.5
Ю 3 35 км н/о +2.3 +1.2 92 -2 -2 1008.4 967.2
ЮЗ 4 35 км н/о +3.9 +2.0 87 -1 -1 1008.2 967.2
Ю 3 45 км 5/1 1500 м
[Sc Ac lent Cs]
+3.4 +1.8 89 -1 -1 1007.8 966.8 +1.4 0.5
ЮЗ 5 45 км 9/1 1500 м
[Sc Ac lent Cs]
+7.7 +3.9 77 +4 +4 1007.1 966.7
Ю 5 >70 км 9/1 600 м
[Sc Ac lent Cs]
+8.1 +3.8 74 +5 +5 1006.3 966.0
Ю 4 >70 км 9/1 1500 м
[Sc Ac lent Cs]
+8.5 +4.3 75 +5 +7 1005.4 965.2 0.5
Ю 3 >70 км 9/1 1500 м
[Sc Ac lent Cs]
+8.1 +4.9 80 +5 +8 1005.0 964.8
Ю 3 >70 км 9/1 1500 м
[Sc Ac lent Cs]
+9.3 +4.9 74 +7 +10 1004.2 964.2
ЮЗ 3 >70 км 9/1 840 м
[Cu Sc Ac lent Cs]
+11.4 +5.3 66 +10 +12 1003.2 963.5 0.5
З 7
{11}
>70 км 10/1 1300 м
[Sc diur, vesp Ac lent Cs]
+12.0 +1.6 49 +9 +10 1002.1 962.5
ЮЗ 5
{11}
>70 км 9/1 1300 м
[Sc Ac lent Cs]
+12.4 +1.7 48 +10 +11 1001.4 961.9
ЮЗ 8
{11}
>70 км 9/1 1500 м
[Sc Ac lent Cs]
+12.0 +2.2 51 +9 +9 1000.6 961.1 0.5
З 7
{13}
35 км н/о +11.1 +2.4 55 +8 +8 1000.8 961.1
З 6 35 км н/о +10.5 +2.6 58 +8 +8 1001.1 961.3
З 8
{13}
50 км 10/0
[Ac As]
+9.8 +2.9 62 +6 +6 1001.3 961.4 +12.4 0.5
З 7
{11}
50 км 10/0
[Ac As]
+9.3 +3.5 67 +6 +6 1001.2 961.3
З 6 50 км 9/0
[Ac As]
+8.5 +3.9 73 +5 +5 1001.0 961.0
З 4
{11}
35 км н/о +8.2 +3.7 73 +5 +5 1000.4 960.4 0.5
ЮЗ 4 35 км н/о +8.8 +3.6 70 +6 +6 999.9 960.0
ЮЗ 5 35 км н/о +7.9 +3.4 73 +4 +4 999.3 959.3
ЮЗ 4
{11}
35 км н/о +6.2 +3.0 80 +2 +2 998.8 958.5 0.5
ЮЗ 3 35 км н/о +6.3 +2.5 77 +3 +3 997.8 957.6
СЗ 4 35 км н/о +5.5 +1.9 78 +2 +2 998.1 957.8
ЮЗ 2 35 км н/о +4.6 +1.6 81 +2 +2 997.9 957.4 0.5
ЮЗ 3 35 км н/о +5.0 +1.8 80 +2 +2 997.4 957.0
Ю 3 35 км н/о +5.0 +1.5 78 +2 +2 997.1 956.7
ЮЗ 3 50 км 10/0
[Ac As]
+5.2 +1.1 75 +2 +2 997.2 956.8 +3.9 0.5
ЮЗ 4 60 км 10/9 1500 м
[Sc]
+5.5 +1.2 74 +2 +2 997.4 957.1
ЮЗ 6 50 км 9/6 1500 м
[Sc As trans]
+6.5 +1.4 70 +2 +2 996.6 956.5
З 11-16
{17}
60 км 10/8 1000 м
[Sc As trans]
+6.4 +0.1 64 +1 +1 997.3 957.1 0.5
З 9-16
{18}
60 км 10/6 1080 м
[Sc As trans]
+5.4 -1.3 62 -0 -0 998.1 957.7
З 10-16
{15}
60 км 9/3 1500 м
[Sc As trans]
+6.0 -5.0 45 +1 +1 998.4 958.1
З 7-12
{18}
60 км 10/5 1500 м
[Sc As op]
+6.0 -4.5 47 +2 +2 998.3 958.0 0.5
СЗ 6
{12}
60 км 10/9 1470 м
[Sc As op]
+5.9 -4.0 49 +2 +2 998.5 958.2
З 7
{11}
60 км 9/3 1500 м
[Sc Cs]
+6.1 -4.6 46 +2 +2 999.0 958.7
СЗ 4
{12}
50 км 9/4 1500 м
[Sc Cs]
+5.7 -4.2 49 +2 +3 999.0 958.6 0.5
СЗ 3 35 км н/о +5.4 -4.8 48 +3 +3 999.7 959.2
З 4 35 км н/о +3.6 -3.8 58 -0 -0 1000.7 959.9
З 4
{12}
50 км 5/1 800 м
[Sc Ci sp]
+2.5 -3.4 65 -2 -2 1001.5 960.6 +6.7 0.5
З 8 45 км 5/0
[Ac As Ci sp]
+2.9 -2.2 69 -3 -3 1001.8 960.9
З 7
{13}
45 км 5/1 1500 м
[Sc Ci sp]
+2.1 -1.9 75 -4 -4 1002.5 961.5
З 7
{13}
35 км н/о +2.5 -2.2 71 -4 -4 1003.4 962.4 0.5
З 6
{13}
35 км в посл. час дождь {ливн. осадки} н/о +1.0 -0.4 90 -5 -5 1004.1 962.8
З 6 35 км н/о +1.1 -0.5 89 -5 -5 1004.9 963.6
З 7
{13}
35 км {ливн. осадки, дождь} н/о +1.2 -1.5 82 -5 -5 1005.3 964.0 0.5
З 6 35 км н/о +1.2 -1.3 83 -5 -5 1005.9 964.6
З 6 35 км н/о +0.9 -1.8 82 -5 -5 1006.1 964.7
З 5 35 км н/о +0.6 -2.5 80 -5 -5 1006.6 965.2 0.5
З 6 35 км н/о +1.1 -2.4 77 -5 -5 1007.2 965.8
З 3 35 км н/о -0.8 -2.9 86 -6 -6 1008.0 966.3
З 5 50 км 4/4 1500 м
[Sc Ci fib]
+0.3 -2.6 81 -6 -6 1008.2 966.7 -1.0 0.5
З 4 45 км 4/0
[Ac lent]
+0.7 -2.3 80 -4 -4 1008.9 967.4
З 7 45 км 4/1 750 м
[Cu hum Ac lent]
+3.3 -2.9 64 -2 -2 1008.6 967.5
З 8-13
{12}
50 км 3/1 840 м
[Cu hum Ac lent]
+4.2 -2.9 60 -2 -1 1008.7 967.7 0.4
З 9
{13}
50 км 9/9 1260 м
[Cu med, cong Ac lent]
+4.7 -3.3 56 -1 -1 1008.3 967.4
З 6
{11}
60 км 9/9 1110 м
[Cu med, cong]
+4.3 -3.0 59 -1 -0 1007.8 966.9 0.4
З 6
{13}
60 км 9/9 1500 м
[Cu med, cong]
+5.0 -4.8 49 +1 +1 1006.9 966.1 0.4
СЗ 3 70 км 9/9 1440 м
[Cu med, cong]
+5.0 -4.8 49 +2 +3 1005.8 965.0
СЗ 2 70 км 9/9 1380 м
[Cu Sc]
+5.3 -4.8 48 +3 +4 1004.9 964.2
ЮЗ 4 60 км 9/8 1380 м
[Cu Sc Cs]
+5.5 -7.0 40 +2 +2 1003.9 963.3 0.4
ЮВ 3 60 км 9/1 1300 м
[Sc diur, vesp Ac lent Cs]
+4.2 -5.6 49 +1 +1 1002.7 961.9
ЮВ 3 35 км н/о +2.1 -5.1 59 -2 -2 1001.7 960.7
В 5 50 км 9/0
[As trans]
+2.2 -5.4 57 -3 -3 1000.0 959.1 +6.3 0.4
В 7 50 км 10/0
[As op]
+3.2 -5.7 52 -2 -2 997.9 957.2
ЮВ 7 50 км 10/0
[As op]
+3.0 -4.7 57 -3 -3 996.4 955.7
ЮВ 6 35 км н/о +3.0 -4.2 59 -2 -2 995.4 954.8 0.4
ЮВ 5 35 км н/о +3.2 -3.7 61 -2 -2 995.3 954.7
Ю 3
{12}
5000 м слаб. ливневой снег {дождь} н/о +0.1 +0.1 100 -5 -5 995.9 954.9
ЮВ 3
{12}
25 км в посл. час снег {ливн. осадки} н/о +0.3 0.0 98 -5 -5 995.9 954.9 0.4
ЮЗ 3 16 км слаб. дождь со снегом н/о +1.3 +0.3 93 -3 -3 996.1 955.2
С 9
{11}
18 км слаб. снег {дождь, дымка} н/о +0.5 -0.1 96 -7 -7 998.7 957.6
СЗ 11-16
{15}
27 км слаб. ливневой снег {дождь} н/о +1.0 -0.7 88 -7 -7 1001.7 960.5 0.4
СЗ 9-14
{17}
30 км слаб. снег {дождь} н/о +1.1 -0.9 86 -6 -6 1004.7 963.4
СЗ 8
{15}
35 км {снег} н/о +1.3 -1.3 83 -6 -6 1007.2 965.9
СЗ 8
{17}
13 км слаб. снег 10/4 400 м
[Sc As op]
+0.8 -0.6 90 -7 -7 1009.1 967.6 0.0 1 1.0 <0.5
СЗ 6
{14}
16 км слаб. снег 9/5 600 м
[Sc As trans]
+1.0 -0.3 91 -5 -5 1011.1 969.6
СЗ 10-15
{14}
40 км в посл. час снег 6/5 800 м
[Sc Ac lent Cs]
+2.2 -1.1 79 -5 -5 1012.1 970.7
СЗ 9
{17}
40 км 3/3 700 м
[Cu med, cong Ac lent Ci fib]
+3.1 -1.5 72 -4 -3 1013.4 972.1 0.4
СЗ 9
{16}
40 км 6/6 840 м
[Cu med, cong Ac lent Ci fib]
+3.6 -1.9 67 -3 -2 1014.7 973.4
СЗ 9-15
{15}
45 км 6/6 800 м
[Cu med, cong Ac lent]
+4.2 -1.8 65 -2 -2 1015.5 974.2
СЗ 11-17
{17}
40 км {снег} 5/5 800 м
[Cu med, cong]
+4.8 -0.4 69 -2 -2 1015.8 974.6 0.0 0.4
СЗ 11-17
{17}
50 км 8/8 1020 м
[Sc]
+4.6 -2.5 60 -2 -2 1016.4 975.2
СЗ 10-15
{18}
50 км 5/5 1050 м
[Cu med, cong]
+4.4 -2.7 60 -2 -2 1017.1 975.8
З 9-14
{18}
50 км 5/5 960 м
[Cu med, cong]
+4.3 -2.3 62 -2 -2 1017.7 976.4 0.4
З 9
{15}
35 км н/о +3.3 -2.5 66 -3 -3 1018.8 977.3
З 7
{13}
35 км н/о +2.6 -3.2 66 -3 -3 1019.7 978.0
З 6
{18}
50 км 1/0 2000 м
[Ac cuf Ci fib]
+1.1 -3.6 71 -5 -5 1020.6 978.7 +5.4 0.0 0.5
З 7
{11}
50 км 3/0
[Ci fib]
+1.3 -4.3 66 -5 -5 1020.4 978.5
З 5 50 км 3/0
[Ci fib]
+1.1 -4.5 66 -4 -4 1020.5 978.6
З 4
{11}
35 км н/о -0.2 -4.5 73 -5 -5 1020.4 978.3 0.4
СЗ 2 35 км н/о +0.1 -4.3 72 -3 -3 1019.8 977.7
Ю 3 35 км н/о -0.3 -4.3 74 -5 -5 1019.4 977.3
Ю 3
{11}
35 км н/о -1.1 -4.3 79 -6 -6 1019.2 977.0 0.4
Ю 3 35 км н/о -1.1 -4.3 79 -6 -6 1017.9 975.7
Ю 3 35 км н/о -1.1 -4.0 81 -6 -6 1017.2 975.1
ЮВ 2 35 км н/о -1.7 -3.7 86 -6 -6 1016.5 974.3 0.4
ЮВ 3 30 км н/о -1.9 -3.6 88 -7 -7 1015.1 972.9
В 2 30 км н/о -1.6 -3.7 86 -5 -5 1014.5 972.4
В 1 50 км 10/0 2000 м
[As op]
-1.3 -4.1 81 -3 -3 1013.5 971.5 -2.4 0.4
ЮВ 2 40 км 10/10 960 м
[Sc]
-0.5 -3.7 79 -4 -4 1012.8 970.9
ЮВ 1 50 км 10/10 1020 м
[Sc]
+0.1 -5.1 68 -2 -2 1012.1 970.4
В 2 16 км дождь со снегом 10/0 700 м
[As op]
+0.3 -2.9 79 -3 -2 1011.4 969.7 0.4
В 4 40 км в посл. час дождь со снегом 10/0 1500 м
[As op]
+1.6 -2.2 76 -3 -2 1010.6 969.2
Местоположение метеостанции Кучарловице (Чехия): широта 48.88 долгота 16.08 высота над уровнем моря 339 м.
В архиве по умолчанию представлена погода в Кучарловице за последнюю неделю. Архивные данные за месяц целиком и за предыдущие месяцы, начиная с января 2011 года, Вы можете получить, выбрав интересующий диапазон дат из раскрывающегося списка и нажав кнопку "Найти!".
*Определитесь, кто Вы:
Внимание! Время в таблицах - всемирное. Для получения местного времени необходимо прибавить поправку, которая равна 1 ч.
Смотрите также архив погоды в соседних городах и на ближайших метеорологических станциях:
Партнеры нашего сайта:      
Пояснения к столбцам:
  • Ветер - указаны скорость ветра в м/с - средняя за 10 мин, порывы в срок и между сроками (в фигурных скобках) и направление, откуда дует ветер: С - северный,
  • СВ - северо-восточный, В - восточный, ЮВ - юго-восточный, Ю - южный, ЮЗ - юго-западный, З - западный, СЗ - северо-западный.
  • Видимость - горизонтальная дальность видимости в метрах или километрах. При видимости от 1 до 10 км при отсутствии осадков обычно наблюдается дымка, при ухудшении видимости до 1 км и менее - туман. В сухую погоду видимость может ухудшаться дымом, пылью или мглою.
  • Явления - указаны атмосферные явления, наблюдавшиеся в срок или в последний час перед сроком; фигурными скобками обозначены явления, наблюдавшиеся между сроками (за 1-3 часа до срока); квадратными скобками обозначены град или гололедные отложения с указанием их диаметра в мм.
  • Облачность - указаны через наклонную черту общая и нижняя облачность в баллах и высота нижней границы облаков в метрах; квадратными скобками обозначены формы облаков: Ci - перистые, Cs - перисто-слоистые, Cc - перисто-кучевые, Ac - высококучевые, As - высокослоистые, Sc - слоисто-кучевые, Ns - слоисто-дождевые, Cu - кучевые, Cb - кучево-дождевые. Подробнее классификацию облаков см. в Атласе облаков (PDF).
  • T - Температура воздуха - температура, измеренная на высоте 2 м над землей.
  • Td - Температура точки росы - температура, при понижении до которой содержащийся в воздухе водяной пар достигнет насыщения.
  • f - Относительная влажность воздуха - влажноcть воздуха, измеренная на высоте 2 м над землей.
  • Te - Эффективная температура - температура, которую ощущает одетый по сезону человек в тени. Характеристика душности погоды. При расчете учитывается влияние влажности воздуха и скорости ветра на теплоощущения человека.
  • Tes - Эффективная температура на солнце - температура, которую ощущает человек, с поправкой на солнечный нагрев. Характеристика знойности погоды. Зависит от высоты солнца над горизонтом, облачности и скорости ветра. Ночью, в пасмурную погоду, а также при ветре 12 м/с и более поправка равна нулю.
  • P - Атмосферное давление - приведенное к уровню моря атмосферное давление.
  • Po - Атмосферное давление - измеренное на уровне метеостанции атмосферное давление.
  • Tmin - Минимальная температура - минимум температуры воздуха на высоте 2 м над землей.
  • Tmax - Максимальная температура - максимум температуры воздуха на высоте 2 м над землей.
  • R - Количество осадков - Количество выпавших осадков за период времени, мм. При наведении курсора мыши на число - период времени, за который выпало указанное количество осадков.
  • R24 - Количество осадков - Количество выпавших осадков за 24 часа, мм.
  • S - Снежный покров - Высота снежного покрова, см. При наведении курсора мыши на число - состояние снежного покрова и степень покрытия местности в баллах.